Voltar ao catálogo

FREGAT R/B

LostMEO
NORAD 40546·ROCKET BODY·🇷🇺 Russia

Lançado Mar 27, 2015 de Guiana Space Centre

Loading…

Próximas Passagens (próximas 24 horas)

TLE

ObsoletoSource: Space-Track

Época: Jul 30, 2026, 11:30 UTC

1 40546U 15017C   26211.47951236 -.00000086  00000-0  00000-0 0  9997
2 40546  56.9688 344.4784 0017489 229.1127 130.7338  1.67685340 69471

Acompanhe FREGAT R/B em tempo real com AllMySat

Download on the App Store